Regional Weather Roundup
Issued by NWS

Home | Current Version | Previous Version | Graphics & Text | Print | Product List | Glossary On
Versions: 1 2 3 4 5 6 7 8 9 10 11 12 13 14 15 16 17 18 19 20 21 22 23 24 25 26 27 28 29 30 31 32 33 34 35 36 37 38 39 40 41 42 43 44 45 46 47 48 49 50
614
ASUS43 KIND 030909
RWRIN

WEATHER ROUNDUP FOR INDIANA
NATIONAL WEATHER SERVICE INDIANAPOLIS IN
400 AM EST SAT DEC 03 2016

NOTE: "FAIR" INDICATES FEW OR NO CLOUDS BELOW 12,000 FEET WITH NO
SIGNIFICANT WEATHER AND/OR OBSTRUCTIONS TO VISIBILITY.

* - STATION DOES NOT REPORT WEATHER SUCH AS PRECIPITATION OR FOG.

+ - STATION NOT QUALITY CONTROLLED BY THE NATIONAL WEATHER SERVICE.
    USE DATA WITH CAUTION...ESPECIALLY DEWPOINT AND RELATIVE
    HUMIDITY OBSERVATIONS.

INZ001>003-010>013-019-020-031000-
NORTHWEST INDIANA

CITY           SKY/WX    TMP DP  RH WIND       PRES   REMARKS
GARY /AIRPORT/ CLOUDY    34  24  65 W6        30.34S WCI  29
KNOX *+        CLOUDY    34  10  37 W9        30.32S WCI  26
LA PORTE +     CLOUDY    36  32  85 W7        30.31S
MICHIGAN CITY+ CLOUDY    34  28  80 SW3       30.32R
MONTICELLO +   CLOUDY    35  27  72 W3        30.33S
RENSSELAER +     N/A     34  30  86 CALM      30.34S

$$

LMZ046-743>745-031000-
SOUTHERN LAKE MICHIGAN

STATION/POSITION TIME  TEMP    WIND        PRES    WAVE
                       AIR SEA DIR/SP/G            HT
                 (UTC) (F)     (DEG/KT/KT) (MB)    (FT)
BURNS HARBOR     0840   36     230/ 10/ 15 1027.1R
MICHIGAN CITY    0840   36     250/ 13/ 16   N/A

$$

INZ004-005-014>016-021>024-031000-
NORTH CENTRAL INDIANA

CITY           SKY/WX    TMP DP  RH WIND       PRES   REMARKS
GOSHEN         CLOUDY    35  27  72 SW5       30.30R WCI  31
LOGANSPORT +   CLOUDY    34  27  75 NW5       30.34S WCI  30
PERU/GRISSOM   CLOUDY    35  30  80 W3        30.31R
ROCHESTER +    CLOUDY    36  32  87 W7        30.32S
SOUTH BEND     CLOUDY    34  28  79 SW5       30.31R WCI  30
WARSAW +       CLOUDY    34  28  80 W6        30.31R WCI  29

$$

INZ006>009-017-018-025>027-031000-
NORTHEAST INDIANA

CITY           SKY/WX    TMP DP  RH WIND       PRES   REMARKS
ANGOLA *+      CLOUDY    36  28  75 W3        30.27S
AUBURN +       CLOUDY    34  28  80 CALM      30.30R
FORT WAYNE     CLOUDY    35  30  82 W5        30.31R WCI  31
HUNTINGTON +   CLOUDY    35  32  90 W3        30.31S
KENDALLVILLE + CLOUDY    34  28  79 CALM      30.28S

$$

INZ028-029-035-036-043>045-051>053-031000-
WEST CENTRAL INDIANA

CITY           SKY/WX    TMP DP  RH WIND       PRES   REMARKS
GREENCASTLE +  CLOUDY    36  32  87 CALM      30.34F
LAFAYETTE      CLOUDY    35  30  82 W3        30.34S
TERRE HAUTE    CLOUDY    38  32  79 CALM      30.36F

$$

INZ030>032-037>040-046>048-054>057-064-065-031000-
CENTRAL INDIANA

CITY           SKY/WX    TMP DP  RH WIND       PRES   REMARKS
CP ATTERBURY + CLOUDY    37  32  81 W3        30.35S
FISHERS *+     CLOUDY    36  30  80 NW3       30.34S
FRANKFORT +    CLOUDY    37  32  81 SW5       30.35R
GREENWOOD *+   CLOUDY    38  35  89 W3        30.35R
INDIANAPOLIS   CLOUDY    37  30  75 W8        30.34
-EAGLE CREEK   CLOUDY    38  33  82 W3        30.33S
MARION +       CLOUDY    35  32  90 W6        30.33S WCI  30
MT COMFORT *+  CLOUDY    36  34  93 W6        30.33R
SHELBYVILLE    CLOUDY    38  34  85 W6        30.33R
ZIONSVILLE +   CLOUDY    35  30  83 W5        30.34R WCI  31

$$

INZ033-034-041-042-049-050-058-059-031000-
EAST CENTRAL INDIANA

CITY           SKY/WX    TMP DP  RH WIND       PRES   REMARKS
MUNCIE         CLOUDY    37  32  82 SW6       30.31S

$$

INZ060-061-067>069-081>083-085>088-031000-
SOUTHWEST INDIANA

CITY           SKY/WX    TMP DP  RH WIND       PRES   REMARKS
EVANSVILLE     CLOUDY    33  30  88 CALM      30.38
HUNTINGBURG *+ CLOUDY    39  32  75 CALM      30.37S
WASHINGTON +   CLOUDY    38  35  88 CALM      30.36S

$$

INZ062-063-066-070>080-084-089>092-031000-
SOUTH CENTRAL AND SOUTHEAST INDIANA

CITY           SKY/WX    TMP DP  RH WIND       PRES   REMARKS
BLOOMINGTON    CLOUDY    38  31  76 W3        30.35S
NORTH VERNON + CLOUDY   N/A N/A N/A SW5       30.35R
SEYMOUR +      CLOUDY    37  34  87 CALM      30.35S

$$





USA.gov is the U.S. government's official web portal to all federal, state and local government web resources and services.